Location: Kumla
(59.1265°N, 15.1401°E)
Time: 03:27:18
(UTC+01:00)

Transit 2A - Pass Details

Date: 10 December 2023
Orbit: 600 x 953 km, 66.7° (Epoch: 24 February)

Event Time Altitude Azimuth Distance (km) Brightness Sun altitude
Rises 16:30:24 0° 247° (WSW) 3,054 11.4 -9.7°
Reaches altitude 10° 16:32:50 10° 252° (WSW) 2,091 9.8 -10.0°
Maximum altitude 16:37:25 53° 330° (NNW) 777 6.1 -10.5°
Enters shadow 16:41:05 14° 46° (NE) 1,717 7.2 -11.0°
Drops below altitude 10° 16:41:45 10° 48° (NE) 1,974 - -11.0°
Sets 16:44:01 0° 54° (NE) 2,865 - -11.3°
